If you wish to contribute or participate in the discussions about articles you are invited to join SKYbrary as a registered user

 Actions

Asuncion/Silvio Pettirossi International Airport

From SKYbrary Wiki

SGAS
Airport
ICAO: SGAS – IATA: ASU
Summary
Name Asuncion/Silvio Pettirossi International Airport
Region South America and Caribbean
Territory Paraguay PY.gif
Location Luque, Central
Serving Asuncion
Elevation 89.002 m
292 ft
292 ft89.002 m
Type medium airport
Coordinates 25° 14' 23.46" S, 57° 31' 8.88" W
Runways
Designator Length Width Surface ROPS
2/20 3353 m11,000.656 ft
46 m150.919 ft
ASP yes/yes


METAR
Observation SGAS 181330Z 24003KT 190V270 8000 BKN015 20/18 Q1017
Station Asuncion / Aeropuerto
Date/Time 18 June 2019 13:30:00
Wind direction 240°
Wind speed 03 kts
Lowest cloud amount broken clouds
Temperature 20°C
Dew point 18°C
Humidity 88%
QNH 1017 hPa
Weather condition n/a

Maps

Terrain

Loading map...

Airport Layout

Loading map...


Accidents & Serious Incidents at or in vicinity of SGAS

None on SKYbrary